User: anonymous   Login
Location: Columbia
(38.9520°N, 92.3340°W)
Time: 22:44:18
(UTC-05:00)
Language:

Cosmos 158 Rocket - Orbit

View from above orbital plane
View from above orbital plane
View from above satellite
View from above satellite

Ground track
Ground track

The orbit data is extracted from the following two-line orbital elements,

1 02802U 67045B   15247.51731352  .00000049  00000-0  22001-4 0  9992
2 02802  74.0121 299.6839 0065972 151.6914 208.7855 14.43488766534942
Epoch (UTC): 04 September 2015 12:24:55
Eccentricity: 0.0065972
inclination: 74.0121°
perigee height: 700 km
apogee height: 794 km
right ascension of ascending node: 299.6839°
argument of perigee: 151.6914°
revolutions per day: 14.43488766
mean anomaly at epoch: 208.7855°
orbit number at epoch: 53494

The dashed part of the orbit path shows where the satellite is in the earth's shadow,  

DLR